Total_Precipitation_Accumulation
1.75 1.81 1.78 1.75 1.72 1.70 1.61 1.46 1.40 1.34 1.23 1.17 1.11 1.07 1.08 1.12 1.11 1.14 1.11 1.08 1.05 1.02 1.00 1.01 1.04 1.10 1.18 1.19 1.21 1.36 1.56 1.71 1.73 1.42 1.27 1.35 1.49 1.45 1.46 1.41 1.31 1.28 1.33
1.45 1.58 1.63 1.55 1.45 1.40 1.32 1.25 1.18 1.12 1.09 1.06 0.97 0.91 0.88 0.87 0.86 0.88 0.89 0.92 0.93 0.89 0.92 0.97 0.98 1.01 1.05 1.12 1.17 1.24 1.39 1.60 1.75 1.67 1.44 1.43 1.49 1.52 1.56 1.55 1.35 1.20 1.26
1.24 1.30 1.34 1.31 1.23 1.16 1.13 1.16 1.08 1.03 0.98 0.92 0.88 0.86 0.79 0.77 0.73 0.72 0.75 0.82 0.85 0.83 0.86 0.91 0.96 1.08 1.08 1.10 1.16 1.19 1.29 1.42 1.69 1.76 1.58 1.54 1.59 1.66 1.76 1.64 1.47 1.42 1.20
1.06 1.11 1.13 1.15 1.14 1.08 1.01 1.00 0.99 0.97 0.94 0.90 0.89 0.81 0.74 0.69 0.68 0.68 0.71 0.75 0.78 0.80 0.86 0.91 0.95 1.08 1.15 1.17 1.16 1.18 1.22 1.36 1.55 1.71 1.67 1.63 1.70 1.78 1.83 1.78 1.63 1.49 1.35
1.07 1.03 1.05 1.12 1.13 1.10 1.09 1.05 0.99 0.93 0.88 0.87 0.86 0.81 0.75 0.68 0.64 0.66 0.67 0.70 0.78 0.82 0.81 0.83 0.88 0.97 1.05 1.04 0.97 0.99 1.13 1.35 1.44 1.61 1.67 1.63 1.64 1.77 1.76 1.57 1.52 1.45 1.30
1.13 1.09 1.08 1.08 1.04 1.03 1.03 1.00 0.97 0.92 0.89 0.86 0.83 0.80 0.75 0.63 0.64 0.66 0.64 0.68 0.74 0.78 0.79 0.78 0.75 0.74 0.71 0.73 0.79 0.84 0.96 1.22 1.55 1.75 1.73 1.66 1.55 1.54 1.59 1.54 1.54 1.55 1.48
1.24 1.15 1.10 1.05 0.96 0.92 0.86 0.86 0.90 0.88 0.83 0.78 0.75 0.75 0.72 0.66 0.65 0.59 0.59 0.64 0.74 0.81 0.83 0.81 0.65 0.55 0.63 0.69 0.75 0.79 0.92 1.09 1.38 1.73 1.83 1.62 1.56 1.53 1.59 1.58 1.64 1.69 1.57
1.19 1.09 1.03 0.98 0.93 0.91 0.90 0.88 0.86 0.85 0.78 0.77 0.76 0.75 0.74 0.64 0.61 0.56 0.56 0.61 0.72 0.74 0.74 0.77 0.77 0.71 0.67 0.72 0.79 0.88 1.01 1.16 1.27 1.37 1.67 1.50 1.29 1.30 1.40 1.45 1.55 1.58 1.48
1.16 1.01 0.93 0.87 0.81 0.79 0.82 0.82 0.80 0.79 0.75 0.71 0.69 0.70 0.76 0.72 0.63 0.56 0.52 0.60 0.68 0.68 0.65 0.65 0.64 0.66 0.72 0.84 0.97 1.17 1.29 1.41 1.34 1.48 1.64 1.59 1.43 1.33 1.24 1.32 1.56 1.61 1.54
0.94 0.83 0.80 0.80 0.74 0.72 0.71 0.72 0.70 0.71 0.71 0.66 0.64 0.67 0.71 0.68 0.54 0.47 0.46 0.54 0.65 0.68 0.70 0.68 0.62 0.57 0.69 0.83 1.08 1.37 1.50 1.57 1.43 1.52 1.78 1.83 1.66 1.62 1.58 1.49 1.63 1.69 1.63
0.80 0.72 0.75 0.75 0.67 0.63 0.65 0.66 0.65 0.62 0.63 0.62 0.61 0.63 0.60 0.51 0.43 0.38 0.39 0.43 0.52 0.62 0.68 0.74 0.73 0.64 0.70 0.90 1.12 1.32 1.46 1.49 1.52 1.59 1.62 1.65 1.73 1.76 1.74 1.67 1.64 1.65 1.63
0.74 0.70 0.74 0.74 0.54 0.47 0.57 0.59 0.58 0.63 0.62 0.60 0.60 0.58 0.50 0.46 0.37 0.33 0.34 0.35 0.37 0.52 0.71 0.74 0.75 0.71 0.75 0.95 1.12 1.37 1.57 1.65 1.63 1.64 1.50 1.41 1.38 1.41 1.48 1.46 1.42 1.39 1.37
0.71 0.72 0.71 0.65 0.54 0.48 0.53 0.55 0.58 0.63 0.60 0.54 0.55 0.54 0.45 0.44 0.39 0.32 0.31 0.32 0.34 0.42 0.59 0.66 0.69 0.71 0.86 1.17 1.34 1.49 1.66 1.76 1.78 1.65 1.45 1.34 1.22 1.14 1.15 1.22 1.25 1.24 1.17
0.75 0.74 0.72 0.66 0.55 0.47 0.49 0.47 0.48 0.51 0.51 0.47 0.48 0.49 0.45 0.44 0.38 0.35 0.37 0.40 0.41 0.45 0.56 0.70 0.80 0.86 1.05 1.36 1.56 1.73 1.77 1.68 1.51 1.44 1.36 1.28 1.15 1.08 1.09 1.05 1.07 1.11 1.12
0.71 0.66 0.63 0.55 0.51 0.50 0.44 0.33 0.31 0.32 0.32 0.36 0.42 0.41 0.38 0.35 0.29 0.31 0.33 0.34 0.38 0.42 0.51 0.70 0.88 1.03 1.23 1.44 1.61 1.66 1.64 1.53 1.41 1.23 1.16 1.20 1.18 1.10 1.06 0.99 0.98 0.99 1.07
0.65 0.62 0.55 0.49 0.47 0.44 0.47 0.37 0.27 0.23 0.22 0.21 0.23 0.24 0.24 0.26 0.26 0.27 0.28 0.30 0.34 0.42 0.53 0.73 0.86 0.96 1.15 1.38 1.52 1.48 1.38 1.30 1.21 1.10 1.05 1.02 1.01 0.97 0.96 0.92 0.87 0.87 0.94
0.53 0.52 0.49 0.45 0.43 0.41 0.43 0.46 0.42 0.29 0.22 0.21 0.21 0.22 0.24 0.25 0.23 0.23 0.26 0.30 0.33 0.42 0.54 0.74 0.85 0.94 1.12 1.27 1.31 1.30 1.27 1.17 1.09 1.06 1.03 0.94 0.87 0.84 0.81 0.79 0.78 0.81 0.79
0.34 0.34 0.35 0.39 0.39 0.38 0.36 0.35 0.36 0.37 0.37 0.33 0.26 0.23 0.21 0.21 0.20 0.20 0.24 0.29 0.34 0.40 0.55 0.73 0.86 0.93 1.01 1.09 1.16 1.21 1.19 1.11 1.02 1.01 1.06 1.01 0.91 0.82 0.75 0.72 0.71 0.67 0.67
0.26 0.29 0.27 0.28 0.31 0.31 0.29 0.29 0.30 0.33 0.35 0.36 0.33 0.28 0.24 0.23 0.25 0.28 0.30 0.34 0.42 0.50 0.59 0.72 0.81 0.88 0.90 0.90 0.96 1.02 1.03 1.03 0.98 0.95 0.95 0.95 0.88 0.79 0.69 0.61 0.57 0.47 0.48
0.19 0.16 0.17 0.19 0.22 0.24 0.22 0.23 0.25 0.27 0.30 0.32 0.33 0.30 0.29 0.35 0.38 0.40 0.37 0.34 0.40 0.50 0.59 0.67 0.75 0.80 0.78 0.76 0.75 0.79 0.84 0.87 0.86 0.83 0.80 0.80 0.78 0.68 0.61 0.54 0.51 0.48 0.48
0.14 0.11 0.12 0.13 0.15 0.16 0.15 0.15 0.18 0.21 0.26 0.30 0.29 0.26 0.33 0.40 0.44 0.44 0.43 0.42 0.45 0.50 0.54 0.57 0.61 0.65 0.63 0.62 0.61 0.64 0.69 0.73 0.74 0.74 0.72 0.68 0.64 0.60 0.53 0.48 0.44 0.41 0.39
0.10 0.09 0.11 0.13 0.13 0.12 0.12 0.13 0.17 0.19 0.21 0.26 0.28 0.29 0.37 0.40 0.45 0.48 0.50 0.51 0.50 0.50 0.48 0.49 0.49 0.50 0.51 0.51 0.50 0.52 0.55 0.58 0.64 0.68 0.70 0.64 0.54 0.49 0.44 0.40 0.40 0.40 0.39
0.10 0.10 0.13 0.14 0.12 0.11 0.12 0.14 0.15 0.16 0.18 0.21 0.24 0.28 0.34 0.42 0.48 0.52 0.54 0.52 0.51 0.49 0.44 0.42 0.44 0.46 0.45 0.42 0.42 0.46 0.50 0.53 0.57 0.66 0.70 0.65 0.53 0.46 0.40 0.38 0.40 0.42 0.39
0.10 0.12 0.14 0.15 0.12 0.11 0.11 0.12 0.14 0.15 0.17 0.20 0.22 0.25 0.30 0.38 0.45 0.52 0.56 0.54 0.52 0.50 0.47 0.44 0.43 0.43 0.40 0.35 0.34 0.33 0.34 0.40 0.48 0.57 0.61 0.61 0.50 0.41 0.35 0.34 0.35 0.36 0.36
0.11 0.11 0.11 0.11 0.12 0.13 0.13 0.13 0.14 0.15 0.15 0.15 0.17 0.19 0.22 0.27 0.33 0.42 0.51 0.55 0.57 0.56 0.52 0.49 0.48 0.46 0.39 0.32 0.26 0.24 0.30 0.38 0.45 0.50 0.53 0.50 0.40 0.34 0.32 0.32 0.32 0.31 0.31
0.09 0.10 0.09 0.08 0.08 0.10 0.12 0.13 0.12 0.13 0.14 0.14 0.14 0.15 0.17 0.20 0.25 0.30 0.38 0.45 0.50 0.55 0.60 0.61 0.57 0.46 0.37 0.31 0.28 0.29 0.30 0.31 0.33 0.37 0.40 0.40 0.33 0.31 0.32 0.32 0.27 0.27 0.29